Torna al catalogo

DELTA 1 DEB

AttivoSSO
NORAD 7065·DEBRIS·🇺🇸 United States

Lanciato Nov 6, 1973 da Vandenberg Space Force Base

Loading…

Prossimi Passaggi (prossime 24 ore)

TLE

AggiornatoSource: Space-Track

Epoca: Sep 12, 2026, 09:25 UTC

1 07065U 73086BH  26255.39281583  .00000268  00000-0  25010-2 0  9997
2 07065 101.8700 224.6493 0044643 280.5530 234.7286 12.34388950374763

Traccia DELTA 1 DEB in tempo reale con AllMySat

Download on the App Store